ROMMA est une association bénévole à but non lucratif. Votre soutien est indispensable : ADHERER à ROMMA ou FAIRE un DON

Saint-Léger-les-Mélèzes - (05, Hautes-Alpes)

Champsaur (1245 m)   Longitude: 6° 11' 42" E    Latitude: 44° 38' 38" N Station partenaire n°51
 

Détail journalier du     <<     >>

Température Precipitation Humidité Vent Dir Rafale Dir. rafale Ensol.
Heure (°C) (mm) (%) (km/h) (km/h) (min)
01:00 8.40771SSO6SSO0
02:00 8.20763SSO6SSO0
03:00 8.10742SSO6SSO0
04:00 8.00723SSO6SSO0
05:00 8.10701SSO5SSO0
06:00 8.70683S6SSO0
07:00 8.60641S6S0
08:00 8.70633SSO6SSO0
09:00 9.10682SSO5SSO0
10:00 13.305603SSO30
11:00 14.005302SSO0
12:00 16.104703SO0
13:00 19.30292NO10ONO20
14:00 20.70264SO23S60
15:00 20.80265SO16ONO60
16:00 21.20274SO15S60
17:00 21.20323OSO15SO60
18:00 20.10354SO16SSE50
19:00 18.00434SO15SSE0
20:00 16.20491SSO13S0
21:00 15.80531SSO15SSE0
22:00 15.40552S15SSO0
23:00 13.60621SE6SSO0
minuit 14.90572SSO13OSO0

Graphique du 29-09-2019

 

Serveur OMMA